OBJECT F, 63987

Orbit data source: Space-Track

You're viewing an Uncataloged Satellite

Recently launched and/or uncataloged satellites may have evolving metadata. Metadata may include but not limited to: Owner, Maufacturer, Bus, Motor, and Mission.

OBJECT F, 63987 is a Chinese satellite in SSO that was launched on Wed, 14 May 2025 UTC via a CHANG ZHENG 2D launch vehicle from the Jiuquan Satellite Launch Center, China (JSC). Unknown objects in Earth's orbit typically refer to objects detected orbiting the Earth but have not yet been identified or cataloged. These objects could be anything from previously untracked satellites, spent rocket stages, debris from satellite collisions, or even natural meteoroids temporarily captured by Earth's gravity.

Loading next visibility...
Identifier
63987, 2025-100F
Orbit
SSO
Country
Flag of CNCN / PRC
Related business
None
Manufacturer
Unknown
Mission
Operational Commercial Technology
Bus & Motor
Unknown
Mass
Unknown
Launch date (UTC)
2025-05-14 (1 year ago)
Launch vehicle
CHANG ZHENG 2D
Launch site
Jiuquan Satellite Launch Center, China (JSC)
Object type
Unknown
Shape & HBR
Box + 2 Pan, 0.9 m
Radar Cross Section
0.135 m², Large (>1 m²)

Expand to show TLE details & history
Last TLE update: 13 hours ago

TLE from 13 hours ago
0 OBJECT F
1 63987U 25100F   26196.16248544  .00007248  00000-0  33260-3 0  9997
2 63987  97.3629 268.2872 0007908 199.7888 160.3042 15.20688710 64880
Epoch: 2026-07-15T03:53Z
TLE epoch observation values (Epoch: 2026-07-15T03:53:58.742Z)
Latitude
-0.00005°
Longitude
-83.2298°
Altitude
511.98 km
Speed
7.605 km/s
True Right ascension
17h 53m 08s
True Declination
0° 00' 00"
Sunlit
Object was in full shadow at epoch
Visualization orbit readout
Latitude
Unknown
Longitude
Unknown
Altitude
Unknown
Speed
Unknown
Apparent Right ascension
Unknown
Apparent Declination
Unknown
Sunlit
N/A
Visualization observer readout
Local Sidereal Time
05:32:12
Azimuth
Unknown
Elevation
Unknown
Doppler factor
Unknown
Orbital elements
Apogee altitude
506.165 km
Perigee altitude
495.285 km
Semi-major axis
6,878.862 km
Eccentricity
0.00079
Inclination
97.3629°
RAAN
268.2872°
Arg. of periapsis
199.7888°
True anomaly
160.33471°
Mean anomaly
160.3042°
Eccentric anomaly
160.31946°
Mean motion
3.80424 °/min
Orbital period
94.63 mins
BSTAR
0.0003326
Loading maneuver chart data...
Computing Atmospheric mass density...
Loading historical data...
Loading historical data...
Loading historical data...
Loading historical data...
Loading historical data...
Loading historical data...
Loading historical data...

Documentation

Showing up to 5 results
|